FW8363 Weather Reports


time (UTC)temp
C
wind
direction
speed
KPH
gust
KPH
rain 1hr
cm
rain 24hr
cm
rain mn
cm
humidity
%
barometer
mb
20260503014151 -65 148 0.0 0.0 0.00 0.00 0.00 1015.6
20260503013512 -65 148 0.0 0.0 0.00 0.00 0.00 1015.5
20260503012128 -65 148 0.0 0.0 0.00 0.00 0.00 1015.4
20260503011506 -65 148 0.0 4.8 0.00 0.00 0.00 1015.3
20260503005026 -66 157 0.0 3.2 0.00 0.00 0.00 1015.1
20260503003649 -66 155 0.0 4.8 0.00 0.00 0.00 1014.9
20260503003012 -66 189 1.6 4.8 0.00 0.00 0.00 1014.8
20260503001603 -66 237 0.0 3.2 0.00 0.00 0.00 1014.7
20260502235608 -66 207 1.6 6.4 0.00 0.00 0.00 1014.5
20260502233607 -66 202 1.6 6.4 0.00 0.00 0.00 1014.2
20260502233002 -66 221 1.6 6.4 0.00 0.00 0.00 1014.1
20260502231548 -66 236 0.0 6.4 0.00 0.00 0.00 1014.0
20260502225625 -65 179 3.2 6.4 0.00 0.00 0.00 1013.6
20260502223548 -65 220 0.0 4.8 0.00 0.00 0.00 1013.5
20260502221503 -65 112 3.2 9.7 0.00 0.00 0.00 1013.4
20260502213525 -65 161 0.0 12.9 0.00 0.00 0.00 1013.3
20260502212147 -65 217 4.8 12.9 0.00 0.00 0.00 1013.2
20260502211504 -65 118 4.8 16.1 0.00 0.00 0.00 1013.1
20260502205513 -65 180 3.2 11.3 0.00 0.00 0.00 1013.1
20260502203543 -65 232 3.2 14.5 0.00 0.00 0.00 1013.4
20260502201526 -65 210 3.2 11.3 0.00 0.00 0.00 1013.7
20260502195603 -65 188 4.8 14.5 0.00 0.00 0.00 1013.9
20260502193548 -65 242 6.4 16.1 0.00 0.00 0.00 1014.1
20260502191510 -65 220 6.4 14.5 0.00 0.00 0.00 1014.2
20260502185602 -65 212 6.4 12.9 0.00 0.00 0.00 1014.4
20260502183543 -65 199 8.0 16.1 0.00 0.00 0.00 1014.5
20260502181548 -65 170 8.0 19.3 0.00 0.00 0.00 1014.4
20260502163550 -64 167 6.4 17.7 0.00 0.00 0.00 1014.8
20260502161503 -65 184 6.4 22.5 0.00 0.00 0.00 1014.9
20260502151526 -65 221 6.4 17.7 0.00 0.00 0.00 1014.7
20260502123003 -61 201 9.7 22.5 0.00 0.00 0.00 1014.2
20260502121605 -61 140 9.7 24.1 0.00 0.00 0.00 1014.2
20260502115647 -61 171 6.4 20.9 0.00 0.00 0.00 1014.1
20260502113600 -61 162 12.9 24.1 0.00 0.00 0.00 1014.2
20260502111502 -65 176 4.8 20.9 0.00 0.00 0.00 1014.1
20260502104607 -66 149 11.3 19.3 0.00 0.00 0.00 1013.9
20260502103156 -66 138 11.3 22.5 0.00 0.00 0.00 1013.7
20260502100124 -65 176 12.9 22.5 0.00 0.00 0.00 1013.7
20260502064658 -66 194 9.7 19.3 0.00 0.00 0.00 1013.9
20260502054006 -66 153 12.9 20.9 0.00 0.00 0.00 1014.2
20260502051642 -66 137 8.0 17.7 0.00 0.00 0.00 1014.4
20260502044646 -66 120 11.3 17.7 0.00 0.00 0.00 1014.6
20260502043109 -66 138 9.7 19.3 0.00 0.00 0.00 1014.8
20260502041615 -66 137 8.0 17.7 0.00 0.00 0.00 1014.7
20260502034653 -66 168 9.7 16.1 0.00 0.00 0.00 1014.6
20260502033204 -66 137 9.7 16.1 0.00 0.00 0.00 1014.3
20260502031658 -66 144 6.4 14.5 0.00 0.00 0.00 1014.5
20260502015037 -67 138 6.4 12.9 0.00 0.00 0.00 1014.0